When you browse on this site, cookies collect data to enhance your experience and personalize the content and advertising you see.
Visit our Privacy Policy to learn more. By continuing to use the site, you agree to this use of cookies and data.
  • In Latvia
  • List of Countries
  • For 7 days
  • Water Temperature
  • Weather Map
  • Weather Widgets
  • user-avatar
    Login

    Hourly Weather Lezhe

    Today, 12 November, Tuesday

    Time Temperature Precipitation Wind Pressure Humidity
    00:00 +10°C° 0 mm 3 mps 734 mmHg 72%
    01:00 +11°C° 0 mm 4 mps 734 mmHg 72%
    02:00 +11°C° 0 mm 4 mps 734 mmHg 71%
    03:00 +12°C° 0 mm 4 mps 733 mmHg 69%
    04:00 +12°C° 0 mm 4 mps 732 mmHg 68%
    05:00 +12°C° 0 mm 5 mps 732 mmHg 69%
    06:00 +12°C° 0 mm 5 mps 731 mmHg 70%
    07:00 +11°C° 0 mm 6 mps 731 mmHg 70%
    08:00 +13°C° 0 mm 6 mps 730 mmHg 70%
    09:00 +14°C° 0 mm 5 mps 730 mmHg 69%
    10:00 +15°C° 0 mm 5 mps 730 mmHg 69%
    11:00 +16°C° 0 mm 5 mps 730 mmHg 68%
    12:00 +16°C° 0 mm 5 mps 730 mmHg 67%
    13:00 +17°C° 0 mm 5 mps 730 mmHg 67%
    14:00 +16°C° 2.3 mm 5 mps 730 mmHg 76%
    15:00 +15°C° 2.3 mm 5 mps 730 mmHg 85%
    16:00 +14°C° 2.3 mm 5 mps 730 mmHg 94%
    17:00 +14°C° 2.6 mm 4 mps 730 mmHg 94%
    18:00 +14°C° 2.6 mm 3 mps 730 mmHg 95%
    19:00 +15°C° 2.6 mm 2 mps 730 mmHg 95%
    20:00 +15°C° 4.4 mm 2 mps 730 mmHg 95%
    21:00 +13°C° 4.4 mm 3 mps 730 mmHg 96%
    22:00 +13°C° 4.4 mm 3 mps 729 mmHg 96%
    23:00 +13°C° 3.7 mm 4 mps 729 mmHg 96%

    Tomorrow, 13 November, Wednesday

    Time Temperature Precipitation Wind Pressure Humidity
    00:00 +13°C° 3.7 mm 4 mps 729 mmHg 95%
    01:00 +13°C° 3.7 mm 4 mps 729 mmHg 94%
    02:00 +13°C° 1.1 mm 3 mps 729 mmHg 92%
    03:00 +12°C° 1.1 mm 3 mps 728 mmHg 91%
    04:00 +13°C° 1.1 mm 2 mps 728 mmHg 89%
    05:00 +12°C° 0 mm 3 mps 728 mmHg 88%
    06:00 +12°C° 0 mm 3 mps 728 mmHg 86%
    07:00 +12°C° 0 mm 4 mps 727 mmHg 85%
    08:00 +14°C° 0 mm 3 mps 728 mmHg 81%
    09:00 +16°C° 0 mm 3 mps 728 mmHg 78%
    10:00 +17°C° 0 mm 3 mps 728 mmHg 74%
    11:00 +18°C° 0.2 mm 3 mps 728 mmHg 72%
    12:00 +18°C° 0.2 mm 4 mps 728 mmHg 69%
    13:00 +19°C° 0.2 mm 5 mps 729 mmHg 66%
    14:00 +18°C° 0.4 mm 4 mps 728 mmHg 70%
    15:00 +17°C° 0.4 mm 4 mps 728 mmHg 75%
    16:00 +15°C° 0.4 mm 4 mps 728 mmHg 79%
    17:00 +15°C° 0.2 mm 4 mps 729 mmHg 80%
    18:00 +14°C° 0.2 mm 4 mps 729 mmHg 80%
    19:00 +14°C° 0.2 mm 3 mps 730 mmHg 81%
    20:00 +13°C° 0.4 mm 3 mps 730 mmHg 82%
    21:00 +13°C° 0.4 mm 3 mps 730 mmHg 82%
    22:00 +13°C° 0.4 mm 3 mps 731 mmHg 83%
    23:00 +13°C° 0.4 mm 3 mps 731 mmHg 84%

    Day after tomorrow, 14 November, Thursday

    Time Temperature Precipitation Wind Pressure Humidity
    00:00 +13°C° 0.4 mm 2 mps 731 mmHg 84%
    01:00 +13°C° 0.4 mm 2 mps 731 mmHg 84%
    02:00 +13°C° 0.2 mm 2 mps 731 mmHg 84%
    03:00 +13°C° 0.2 mm 2 mps 731 mmHg 84%
    04:00 +13°C° 0.2 mm 2 mps 731 mmHg 83%
    05:00 +13°C° 0.1 mm 1 mps 731 mmHg 83%
    06:00 +13°C° 0.1 mm 1 mps 731 mmHg 82%
    07:00 +13°C° 0.1 mm 1 mps 731 mmHg 82%
    08:00 +14°C° 0.1 mm 1 mps 732 mmHg 78%
    09:00 +15°C° 0.1 mm 1 mps 732 mmHg 75%
    10:00 +16°C° 0.1 mm 1 mps 732 mmHg 71%
    11:00 +16°C° 0.2 mm 1 mps 732 mmHg 72%
    12:00 +16°C° 0.2 mm 2 mps 732 mmHg 73%
    13:00 +16°C° 0.2 mm 2 mps 732 mmHg 74%
    14:00 +16°C° 0.4 mm 2 mps 732 mmHg 77%
    15:00 +15°C° 0.4 mm 2 mps 732 mmHg 79%
    16:00 +15°C° 0.4 mm 2 mps 732 mmHg 82%
    17:00 +14°C° 0.1 mm 2 mps 732 mmHg 82%
    18:00 +14°C° 0.1 mm 2 mps 733 mmHg 82%
    19:00 +13°C° 0.1 mm 1 mps 733 mmHg 82%
    20:00 +13°C° 0.1 mm 1 mps 733 mmHg 81%
    21:00 +13°C° 0.1 mm 1 mps 734 mmHg 80%
    22:00 +13°C° 0.1 mm 1 mps 734 mmHg 79%
    23:00 +13°C° 0 mm 1 mps 734 mmHg 79%

    15 November, Friday

    Time Temperature Precipitation Wind Pressure Humidity
    00:00 +12°C° 0 mm 1 mps 734 mmHg 78%
    01:00 +12°C° 0 mm 2 mps 735 mmHg 78%
    02:00 +12°C° 0 mm 2 mps 735 mmHg 77%
    03:00 +12°C° 0 mm 1 mps 735 mmHg 77%
    04:00 +12°C° 0 mm 1 mps 735 mmHg 77%
    05:00 +12°C° 0 mm 2 mps 735 mmHg 76%
    06:00 +12°C° 0 mm 2 mps 735 mmHg 76%
    07:00 +12°C° 0 mm 2 mps 735 mmHg 75%
    08:00 +14°C° 0 mm 1 mps 736 mmHg 70%
    09:00 +15°C° 0 mm 1 mps 736 mmHg 65%
    10:00 +18°C° 0 mm 1 mps 736 mmHg 60%
    11:00 +19°C° 0 mm 1 mps 736 mmHg 60%
    12:00 +19°C° 0 mm 1 mps 736 mmHg 59%
    13:00 +19°C° 0 mm 1 mps 736 mmHg 58%
    14:00 +18°C° 0 mm 1 mps 736 mmHg 63%
    15:00 +18°C° 0 mm 1 mps 736 mmHg 68%
    16:00 +16°C° 0 mm 1 mps 736 mmHg 73%
    17:00 +15°C° 0 mm 1 mps 737 mmHg 74%
    18:00 +14°C° 0 mm 1 mps 737 mmHg 75%
    19:00 +14°C° 0 mm 1 mps 737 mmHg 77%
    20:00 +14°C° 0 mm 2 mps 738 mmHg 78%
    21:00 +14°C° 0 mm 2 mps 738 mmHg 79%
    22:00 +14°C° 0 mm 2 mps 738 mmHg 80%
    23:00 +14°C° 0 mm 2 mps 738 mmHg 80%

    16 November, Saturday

    Time Temperature Precipitation Wind Pressure Humidity
    00:00 +13°C° 0 mm 2 mps 738 mmHg 81%
    01:00 +13°C° 0 mm 2 mps 739 mmHg 82%
    02:00 +13°C° 0 mm 2 mps 739 mmHg 81%
    03:00 +13°C° 0 mm 2 mps 738 mmHg 80%
    04:00 +13°C° 0 mm 2 mps 738 mmHg 79%
    05:00 +13°C° 0 mm 2 mps 738 mmHg 78%
    06:00 +13°C° 0 mm 2 mps 739 mmHg 78%
    07:00 +13°C° 0 mm 2 mps 739 mmHg 77%
    08:00 +15°C° 0 mm 2 mps 739 mmHg 74%
    09:00 +16°C° 0 mm 1 mps 739 mmHg 70%
    10:00 +19°C° 0 mm 1 mps 739 mmHg 67%
    11:00 +19°C° 0 mm 1 mps 738 mmHg 65%
    12:00 +20°C° 0 mm 1 mps 738 mmHg 62%
    13:00 +20°C° 0 mm 1 mps 737 mmHg 60%
    14:00 +19°C° 0 mm 1 mps 737 mmHg 65%
    15:00 +18°C° 0 mm 1 mps 737 mmHg 70%
    16:00 +16°C° 0 mm 1 mps 737 mmHg 76%
    17:00 +15°C° 0 mm 1 mps 737 mmHg 76%
    18:00 +14°C° 0 mm 1 mps 737 mmHg 77%
    19:00 +14°C° 0 mm 2 mps 737 mmHg 78%
    20:00 +13°C° 0 mm 2 mps 737 mmHg 77%
    21:00 +13°C° 0 mm 2 mps 737 mmHg 77%
    22:00 +13°C° 0 mm 2 mps 737 mmHg 77%
    23:00 +12°C° 0 mm 2 mps 736 mmHg 77%

    17 November, Sunday

    Time Temperature Precipitation Wind Pressure Humidity
    00:00 +12°C° 0 mm 2 mps 736 mmHg 77%
    01:00 +12°C° 0 mm 2 mps 736 mmHg 78%
    02:00 +12°C° 0 mm 2 mps 736 mmHg 78%
    03:00 +12°C° 0 mm 2 mps 736 mmHg 78%
    04:00 +10°C° 0 mm 2 mps 735 mmHg 79%
    05:00 +10°C° 0 mm 2 mps 735 mmHg 80%
    06:00 +10°C° 0 mm 2 mps 735 mmHg 80%
    07:00 +10°C° 0 mm 2 mps 736 mmHg 81%
    08:00 +13°C° 0 mm 2 mps 736 mmHg 76%
    09:00 +14°C° 0 mm 2 mps 736 mmHg 71%
    10:00 +16°C° 0 mm 2 mps 736 mmHg 66%
    11:00 +17°C° 0 mm 2 mps 735 mmHg 63%
    12:00 +19°C° 0 mm 1 mps 735 mmHg 60%
    13:00 +20°C° 0 mm 1 mps 735 mmHg 57%
    14:00 +19°C° 0 mm 1 mps 734 mmHg 61%
    15:00 +18°C° 0 mm 1 mps 734 mmHg 66%
    16:00 +16°C° 0 mm 1 mps 734 mmHg 71%
    17:00 +15°C° 0 mm 2 mps 734 mmHg 72%
    18:00 +14°C° 0 mm 2 mps 734 mmHg 73%
    19:00 +14°C° 0 mm 2 mps 734 mmHg 74%
    20:00 +13°C° 0 mm 2 mps 734 mmHg 74%
    21:00 +13°C° 0 mm 2 mps 734 mmHg 74%
    22:00 +13°C° 0 mm 2 mps 734 mmHg 74%
    23:00 +12°C° 1.5 mm 3 mps 734 mmHg 81%
    Show more